Home   Weather   Kortrijk   Past weeks

Flag for Belgium Past Weather in Kortrijk, Belgium — Yesterday and Last 2 Weeks

Now
41 °F

Mostly cloudy.


Feels Like: 32 °F
Forecast: 42 / 48 °F
Wind: 18 mph from Southwest

Location: Lille Airport

Current Time: Feb 28, 2017 at 2:07:34 am

Latest Report: Feb 28, 2017 at 1:30 am


Visibility: N/A

Pressure: 29.24 "Hg

Humidity: 76%

Dew Point: 34 °F

Location of KortrijkLocation

Past Weather in Kortrijk — Graph

°F

Kortrijk Temperature Yesterday

Maximum temperature yesterday: 52 °F (at 12:00 am)
Minimum temperature yesterday: 41 °F (at 11:30 pm)
Average temperature yesterday: 48 °F

High & Low Weather Summary for the Past Weeks

 TemperatureHumidityPressure
High59 °F (Feb 15, 2:30 pm)100% (Feb 16, 12:00 am)30.48 "Hg (Feb 16, 12:00 am)
Low32 °F (Feb 25, 3:00 am)55% (Feb 14, 1:30 pm)29.21 "Hg (Feb 27, 4:30 pm)
Average46 °F84%30.07 "Hg
* Reported Feb 13 12:00 am — Feb 28 12:30 am, Kortrijk, Weather by CustomWeather, © 2017

Note: Actual official high and low records may vary slightly from our data, if they occured in-between our weather recording intervals... More about our weather records

Advertising

Kortrijk Weather History for the Previous 24 Hours

Scroll right to see more
 ConditionsComfort  
Time TempWeatherWind HumidityBarometerVisibility
12:30 am
Tue, Feb 28
41 °FMostly cloudy.17 mph76%29.21 "HgN/A
12:00 am41 °FPartly cloudy.18 mph76%29.21 "HgN/A
11:30 pm
Mon, Feb 27
41 °FPassing clouds.16 mph81%29.21 "HgN/A
11:00 pm43 °FLight rain. Mostly cloudy.21 mph76%29.24 "HgN/A
10:30 pm43 °FPartly cloudy.20 mph76%29.24 "HgN/A
10:00 pm43 °FPassing clouds.17 mph76%29.24 "HgN/A
9:30 pm43 °FClear.16 mph76%29.24 "Hg10 mi
9:00 pm43 °FPassing clouds.15 mph76%29.24 "HgN/A
8:30 pm43 °FClear.20 mph81%29.24 "Hg10 mi
8:00 pm45 °FPartly cloudy.17 mph76%29.24 "HgN/A
7:30 pm45 °FPartly cloudy.22 mph71%29.24 "HgN/A
7:00 pm45 °FPassing clouds.16 mph81%29.24 "HgN/A
6:30 pm46 °FPartly cloudy.17 mph71%29.21 "HgN/A
6:00 pm48 °FPartly sunny.17 mph76%29.21 "HgN/A
5:30 pm46 °FMostly cloudy.12 mph87%29.21 "HgN/A
5:00 pm46 °FPartly sunny.13 mph82%29.21 "HgN/A
4:30 pm46 °FLight rain. Mostly cloudy.20 mph82%29.21 "HgN/A
4:00 pm46 °FLight rain. Partly sunny.22 mph82%29.27 "Hg5 mi
3:30 pm48 °FSunny.20 mph82%29.24 "Hg10 mi
3:00 pm46 °FPartly sunny.17 mph82%29.24 "HgN/A
2:30 pm46 °FLight rain. Mostly cloudy.25 mph82%29.30 "HgN/A
2:00 pm45 °FThundershowers. More clouds than sun.16 mph87%29.30 "HgN/A
1:30 pm48 °FRain. Fog.17 mph94%29.33 "Hg2 mi
1:00 pm48 °FLight rain. Fog.17 mph94%29.36 "Hg3 mi
12:30 pm48 °FLight rain. Mostly cloudy.13 mph94%29.39 "Hg5 mi
12:00 pm48 °FLight rain. Mostly cloudy.13 mph94%29.42 "Hg4 mi
11:30 am50 °FLight rain. Overcast.20 mph82%29.45 "HgN/A
11:00 am50 °FLight rain. Overcast.22 mph76%29.45 "HgN/A
10:30 am50 °FMostly cloudy.23 mph76%29.47 "HgN/A
10:00 am50 °FMostly cloudy.22 mph76%29.47 "HgN/A
9:30 am50 °FMore clouds than sun.22 mph71%29.50 "HgN/A
9:00 am50 °FMostly cloudy.23 mph71%29.50 "HgN/A
8:30 am50 °FMostly cloudy.25 mph71%29.53 "HgN/A
8:00 am50 °FMostly cloudy.23 mph67%29.53 "HgN/A
7:30 am50 °FMostly cloudy.21 mph71%29.53 "HgN/A
7:00 am50 °FPassing clouds.20 mph67%29.56 "HgN/A
6:30 am50 °FMostly cloudy.14 mph71%29.59 "HgN/A
6:00 am50 °FMostly cloudy.17 mph71%29.59 "HgN/A
5:30 am50 °FOvercast.16 mph71%29.62 "HgN/A
5:00 am50 °FOvercast.17 mph71%29.62 "HgN/A
4:30 am50 °FOvercast.18 mph71%29.65 "HgN/A
4:00 am50 °FOvercast.18 mph71%29.65 "HgN/A
3:30 am50 °FOvercast.17 mph71%29.68 "HgN/A
3:00 am52 °FOvercast.21 mph67%29.68 "HgN/A
2:30 am52 °FOvercast.15 mph72%29.68 "HgN/A
2:00 am52 °FMostly cloudy.12 mph72%29.71 "HgN/A
Weather by CustomWeather, © 2017

See weather overviewHow to use our weather pages